FW4559 Weather Reports


time (UTC)temp
C
wind
direction
speed
KPH
gust
KPH
rain 1hr
cm
rain 24hr
cm
rain mn
cm
humidity
%
barometer
mb
20260901040504 17 214 0.0 0.0 0.00 0.05 0.00 96 1019.8
20260901040110 17 214 0.0 0.0 0.00 0.05 0.00 96 1019.7
20260901035503 18 214 0.0 0.0 0.00 0.05 0.05 96 1019.7
20260901035002 18 214 0.0 0.0 0.00 0.05 0.05 96 1019.8
20260901034502 18 214 0.0 0.0 0.00 0.05 0.05 96 1019.7
20260901034001 18 214 0.0 0.0 0.00 0.05 0.05 96 1019.7
20260901033502 18 214 0.0 0.0 0.00 0.05 0.05 96 1019.7
20260901033002 18 214 0.0 0.0 0.00 0.05 0.05 96 1019.8
20260901032503 18 214 0.0 0.0 0.00 0.05 0.05 96 1019.7
20260901032004 18 214 0.0 0.0 0.00 0.05 0.05 96 1019.8
20260901031503 18 214 0.0 0.0 0.00 0.05 0.05 96 1019.7
20260901031100 18 214 0.0 0.0 0.00 0.05 0.05 96 1019.7
20260901030500 18 214 0.0 0.0 0.00 0.05 0.05 96 1019.7
20260901030001 18 214 0.0 0.0 0.00 0.05 0.05 96 1019.7
20260901025601 18 214 0.0 0.0 0.00 0.05 0.05 96 1019.8
20260901025104 18 214 0.0 0.0 0.00 0.05 0.05 96 1019.7
20260901024600 18 214 0.0 0.0 0.00 0.05 0.05 96 1019.8
20260901024100 18 145 0.0 0.0 0.00 0.05 0.05 96 1019.7
20260901023600 18 145 0.0 0.0 0.00 0.05 0.05 96 1019.6
20260901023100 18 145 0.0 0.0 0.00 0.05 0.05 96 1019.7
20260901022600 18 145 0.0 0.0 0.00 0.05 0.05 96 1019.6
20260901022059 18 145 0.0 0.0 0.00 0.05 0.05 96 1019.6
20260901021559 18 145 0.0 0.0 0.00 0.05 0.05 96 1019.6
20260901021059 19 145 0.0 0.0 0.00 0.05 0.05 96 1019.6
20260901020557 19 145 0.0 0.0 0.00 0.05 0.05 96 1019.6
20260901020059 19 145 0.0 0.0 0.00 0.05 0.05 96 1019.6
20260901015557 19 145 0.0 0.0 0.00 0.05 0.05 96 1019.6
20260901015058 19 145 0.0 0.0 0.00 0.05 0.05 96 1019.5
20260901014557 19 145 0.0 0.0 0.00 0.05 0.05 95 1019.5
20260901014056 19 145 0.0 0.0 0.00 0.05 0.05 95 1019.4
20260901013557 19 145 0.0 0.0 0.00 0.05 0.05 95 1019.4
20260901013101 19 145 0.0 0.0 0.00 0.05 0.05 95 1019.4
20260901012555 19 145 0.0 0.0 0.00 0.05 0.05 95 1019.3
20260901012055 19 145 0.0 0.0 0.00 0.05 0.05 95 1019.3
20260901011557 19 145 0.0 0.0 0.00 0.05 0.05 95 1019.3
20260901011056 19 145 0.0 0.0 0.00 0.05 0.05 95 1019.3
20260901010555 19 145 0.0 0.0 0.00 0.05 0.05 95 1019.3
20260901010058 19 145 0.0 0.0 0.00 0.05 0.05 95 1019.2
20260901005554 19 145 0.0 0.0 0.00 0.05 0.05 95 1019.1
20260901005054 19 145 0.0 0.0 0.00 0.05 0.05 95 1019.0
20260901004555 20 145 0.0 1.6 0.00 0.05 0.05 95 1018.9
20260901004053 20 145 0.0 1.6 0.00 0.05 0.05 95 1019.0
20260901003553 20 145 0.0 1.6 0.00 0.05 0.05 95 1018.9
20260901003053 20 145 0.0 1.6 0.00 0.05 0.05 94 1018.9
20260901002553 20 114 0.0 1.6 0.00 0.05 0.05 94 1018.8
20260901002057 20 114 0.0 1.6 0.00 0.05 0.05 94 1018.8
20260901001555 20 114 0.0 1.6 0.00 0.05 0.05 94 1018.7
20260901001052 20 143 0.0 3.2 0.00 0.05 0.05 94 1018.7
20260901000551 20 141 0.0 1.6 0.00 0.05 0.05 93 1018.7
20260901000059 20 121 0.0 0.0 0.00 0.05 0.05 93 1018.6
20260831235552 20 121 0.0 0.0 0.00 0.05 0.05 93 1018.6
20260831235052 21 122 0.0 1.6 0.00 0.05 0.05 93 1018.6
20260831234551 21 121 0.0 1.6 0.03 0.05 0.05 93 1018.6
20260831234053 21 204 0.0 0.0 0.03 0.05 0.05 93 1018.7
20260831233550 21 204 0.0 0.0 0.03 0.05 0.05 93 1018.7
20260831233051 21 204 0.0 0.0 0.03 0.05 0.05 92 1018.8
20260831232553 21 204 0.0 0.0 0.03 0.05 0.05 92 1018.8
20260831232051 21 203 0.0 0.0 0.03 0.05 0.05 92 1018.8
20260831231551 21 203 0.0 0.0 0.03 0.05 0.05 91 1018.9
20260831231050 21 204 0.0 0.0 0.03 0.05 0.05 91 1018.9
20260831230550 21 224 0.0 0.0 0.03 0.05 0.05 91 1018.9
20260831230050 21 238 0.0 3.2 0.03 0.05 0.05 88 1018.9
20260831225548 22 238 0.0 3.2 0.03 0.05 0.05 89 1019.0
20260831225049 22 214 0.0 1.6 0.03 0.05 0.05 89 1019.0
20260831224549 22 344 0.0 4.8 0.00 0.03 0.03 86 1019.0
20260831224049 22 81 0.0 9.7 0.00 0.03 0.03 85 1019.0
20260831223550 23 8 4.8 17.7 0.00 0.03 0.03 83 1019.1
20260831223049 25 358 6.4 17.7 0.00 0.03 0.03 80 1019.0
20260831222549 25 219 0.0 1.6 0.00 0.03 0.03 76 1018.9
20260831222048 26 219 0.0 1.6 0.00 0.03 0.03 72 1018.9
20260831221548 26 219 0.0 1.6 0.00 0.03 0.03 71 1018.8
20260831221048 26 219 0.0 6.4 0.00 0.03 0.03 71 1018.6
20260831220547 26 214 0.0 8.0 0.00 0.03 0.03 73 1018.5
20260831220046 26 180 1.6 8.0 0.00 0.03 0.03 71 1018.7
20260831215546 26 200 0.0 4.8 0.00 0.03 0.03 73 1018.7
20260831215046 26 162 1.6 8.0 0.00 0.03 0.03 74 1018.6
20260831214546 26 174 1.6 8.0 0.00 0.03 0.03 73 1018.7
20260831214048 26 189 1.6 8.0 0.00 0.03 0.03 73 1018.7
20260831213545 26 185 1.6 3.2 0.00 0.03 0.03 70 1018.7
20260831213045 26 200 0.0 3.2 0.00 0.03 0.03 70 1018.8
20260831212545 26 187 0.0 4.8 0.00 0.03 0.03 71 1018.9
20260831212045 26 203 1.6 6.4 0.00 0.03 0.03 70 1018.8
20260831211551 27 156 1.6 4.8 0.00 0.03 0.03 69 1018.8
20260831211044 27 215 1.6 4.8 0.00 0.03 0.03 67 1018.7
20260831210542 27 181 0.0 3.2 0.00 0.03 0.03 66 1018.7
20260831210043 27 161 0.0 3.2 0.00 0.03 0.03 66 1018.7
20260831205546 27 175 0.0 4.8 0.00 0.03 0.03 68 1018.7
20260831205043 26 173 1.6 4.8 0.00 0.03 0.03 72 1018.8
20260831204542 26 226 1.6 6.4 0.00 0.03 0.03 71 1018.7
20260831204042 26 195 0.0 6.4 0.00 0.03 0.03 70 1018.7
20260831203541 26 226 1.6 6.4 0.00 0.03 0.03 69 1018.8
20260831203041 26 159 1.6 4.8 0.00 0.03 0.03 69 1018.8
20260831202540 26 214 0.0 4.8 0.00 0.03 0.03 70 1018.9
20260831202040 26 160 1.6 4.8 0.00 0.03 0.03 71 1019.0
20260831201540 26 168 1.6 4.8 0.00 0.03 0.03 71 1019.1
20260831201041 26 151 1.6 6.4 0.00 0.03 0.03 72 1019.2
20260831200537 25 197 0.0 6.4 0.00 0.03 0.03 73 1019.1
20260831200038 25 205 0.0 4.8 0.00 0.03 0.03 76 1019.2
20260831195537 24 171 0.0 6.4 0.00 0.03 0.03 77 1019.3
20260831195039 24 190 1.6 4.8 0.00 0.03 0.03 79 1019.4
20260831194549 24 166 0.0 11.3 0.00 0.03 0.03 79 1019.4
20260831194038 24 190 0.0 12.9 0.00 0.03 0.03 79 1019.4
20260831193536 25 245 3.2 12.9 0.00 0.03 0.03 77 1019.5
20260831193035 25 142 1.6 8.0 0.00 0.03 0.03 77 1019.6
20260831192535 25 120 1.6 9.7 0.00 0.03 0.03 75 1019.6
20260831192034 26 190 0.0 12.9 0.00 0.03 0.03 73 1019.7
20260831191536 26 149 0.0 12.9 0.00 0.03 0.03 70 1019.7
20260831191039 27 192 1.6 9.7 0.00 0.03 0.03 69 1019.7
20260831190534 27 124 0.0 3.2 0.00 0.03 0.03 66 1019.7
20260831190034 27 178 0.0 3.2 0.00 0.03 0.03 65 1019.8
20260831185534 27 191 0.0 4.8 0.00 0.03 0.03 66 1019.8
20260831185034 27 240 1.6 4.8 0.00 0.03 0.03 66 1019.8
20260831184533 27 166 0.0 1.6 0.00 0.03 0.03 67 1019.7
20260831184032 26 153 0.0 1.6 0.00 0.03 0.03 68 1019.8
20260831183532 26 144 0.0 3.2 0.00 0.03 0.03 67 1019.8
20260831183032 26 127 0.0 4.8 0.00 0.03 0.03 67 1019.8
20260831182532 26 198 0.0 4.8 0.00 0.03 0.03 66 1019.7
20260831182035 26 105 0.0 4.8 0.00 0.03 0.03 66 1019.7
20260831181532 26 150 0.0 8.0 0.00 0.03 0.03 65 1019.7
20260831181031 27 51 0.0 9.7 0.00 0.03 0.03 62 1019.7
20260831180530 27 338 0.0 8.0 0.00 0.03 0.03 59 1019.7
20260831180030 27 53 1.6 8.0 0.00 0.03 0.03 60 1019.8
20260831175530 27 127 0.0 8.0 0.00 0.03 0.03 63 1019.9
20260831175030 27 350 1.6 8.0 0.00 0.03 0.03 62 1020.0
20260831174532 27 354 1.6 4.8 0.00 0.03 0.03 64 1020.1
20260831174029 26 20 0.0 6.4 0.00 0.03 0.03 68 1020.1
20260831173530 26 20 0.0 6.4 0.00 0.03 0.03 67 1020.2
20260831173028 26 84 0.0 6.4 0.00 0.03 0.03 67 1020.1
20260831172529 26 343 3.2 11.3 0.00 0.03 0.03 66 1020.1
20260831172029 26 48 0.0 11.3 0.00 0.03 0.03 68 1020.2
20260831171528 26 346 3.2 9.7 0.00 0.03 0.03 67 1020.4
20260831171028 26 9 1.6 9.7 0.00 0.03 0.03 66 1020.4
20260831170527 26 357 0.0 9.7 0.00 0.03 0.03 66 1020.4
20260831170027 26 20 1.6 9.7 0.00 0.03 0.03 65 1020.3
20260831165527 27 79 0.0 4.8 0.00 0.03 0.03 66 1020.3
20260831165026 27 8 1.6 4.8 0.00 0.03 0.03 63 1020.3
20260831164526 27 115 0.0 1.6 0.00 0.03 0.03 68 1020.4
20260831164026 27 115 0.0 4.8 0.00 0.03 0.03 63 1020.4
20260831163526 27 9 0.0 9.7 0.00 0.03 0.03 62 1020.4
20260831163030 28 334 3.2 9.7 0.00 0.03 0.03 58 1020.4
20260831162525 28 348 0.0 3.2 0.00 0.03 0.03 61 1020.4
20260831162023 28 76 0.0 9.7 0.00 0.03 0.03 63 1020.4
20260831161530 28 23 3.2 9.7 0.00 0.03 0.03 57 1020.5
20260831161023 27 108 0.0 3.2 0.00 0.03 0.03 63 1020.5
20260831160523 27 340 0.0 4.8 0.00 0.03 0.03 64 1020.6
20260831160022 27 340 0.0 4.8 0.00 0.03 0.03 61 1020.6
20260831155523 27 359 0.0 3.2 0.00 0.03 0.03 61 1020.6
20260831155022 28 271 0.0 1.6 0.00 0.03 0.03 59 1020.6
20260831154520 27 252 0.0 1.6 0.00 0.03 0.03 63 1020.6
20260831154023 26 315 0.0 6.4 0.00 0.03 0.03 65 1020.7
20260831153520 26 274 0.0 6.4 0.00 0.03 0.03 68 1020.7
20260831153019 26 338 0.0 9.7 0.00 0.03 0.03 67 1020.7
20260831152519 26 7 3.2 9.7 0.00 0.03 0.03 65 1020.6
20260831152021 26 51 0.0 9.7 0.00 0.03 0.03 68 1020.6
20260831151521 25 43 0.0 9.7 0.00 0.03 0.03 67 1020.7
20260831151020 25 8 3.2 8.0 0.00 0.03 0.03 66 1020.6
20260831150517 25 344 1.6 9.7 0.00 0.03 0.03 66 1020.6
20260831150016 25 1 0.0 11.3 0.00 0.03 0.03 66 1020.6
20260831145516 26 343 3.2 11.3 0.00 0.03 0.03 67 1020.5
20260831145016 26 352 0.0 4.8 0.00 0.03 0.03 71 1020.5
20260831144515 26 1 1.6 4.8 0.00 0.03 0.03 71 1020.5
20260831144015 26 11 0.0 3.2 0.00 0.03 0.03 71 1020.4
20260831143515 26 349 0.0 3.2 0.00 0.03 0.03 70 1020.5
20260831143014 27 1 0.0 1.6 0.00 0.03 0.03 69 1020.5
20260831142516 27 221 0.0 1.6 0.00 0.03 0.03 71 1020.4
20260831142010 26 221 0.0 0.0 0.03 0.03 0.03 74 1020.4
20260831141510 26 221 0.0 1.6 0.03 0.03 0.03 75 1020.4
20260831141008 25 221 0.0 1.6 0.03 0.03 0.03 78 1020.3
20260831140510 25 221 0.0 1.6 0.03 0.03 0.03 78 1020.4
20260831140005 25 221 0.0 1.6 0.03 0.03 0.03 78 1020.5
20260831135504 25 221 0.0 0.0 0.03 0.03 0.03 81 1020.5
20260831135003 24 221 0.0 0.0 0.03 0.03 0.03 83 1020.5
20260831134502 23 221 0.0 1.6 0.03 0.03 0.03 85 1020.6
20260831134059 23 221 0.0 1.6 0.03 0.03 0.03 87 1020.6
20260831133558 22 222 0.0 1.6 0.03 0.03 0.03 88 1020.7
20260831133057 22 221 0.0 1.6 0.03 0.03 0.03 91 1020.7
20260831132556 22 221 0.0 1.6 0.03 0.03 0.03 93 1020.7
20260831132055 21 221 0.0 0.0 0.00 0.00 0.00 95 1020.8
20260831131556 20 222 0.0 0.0 0.00 0.00 0.00 96 1020.8
20260831131053 20 221 0.0 0.0 0.00 0.00 0.00 96 1020.8
20260831130551 20 221 0.0 0.0 0.00 0.00 0.00 96 1020.8
20260831130104 20 221 0.0 0.0 0.00 0.00 0.00 96 1020.8
20260831125549 19 221 0.0 0.0 0.00 0.00 0.00 96 1020.8
20260831125048 18 221 0.0 0.0 0.00 0.00 0.00 96 1020.7
20260831124547 18 221 0.0 0.0 0.00 0.00 0.00 96 1020.8
20260831124046 18 221 0.0 0.0 0.00 0.00 0.00 96 1020.7
20260831123546 17 221 0.0 0.0 0.00 0.00 0.00 96 1020.6
20260831123045 17 221 0.0 0.0 0.00 0.00 0.00 96 1020.7
20260831122544 16 222 0.0 0.0 0.00 0.00 0.00 96 1020.6
20260831122048 16 221 0.0 0.0 0.00 0.00 0.00 96 1020.6
20260831121545 15 222 0.0 0.0 0.00 0.00 0.00 96 1020.7
20260831121044 15 222 0.0 0.0 0.00 0.00 0.00 96 1020.7
20260831120544 15 222 0.0 0.0 0.00 0.00 0.00 96 1020.6
20260831120044 15 221 0.0 0.0 0.00 0.00 0.00 96 1020.8
20260831115543 15 222 0.0 0.0 0.00 0.00 0.00 96 1020.7
20260831115043 15 222 0.0 0.0 0.00 0.00 0.00 96 1020.8
20260831114543 15 221 0.0 0.0 0.00 0.00 0.00 96 1020.7
20260831114043 15 221 0.0 0.0 0.00 0.00 0.00 96 1020.6
20260831113542 15 222 0.0 0.0 0.00 0.00 0.00 96 1020.7
20260831113041 15 221 0.0 0.0 0.00 0.00 0.00 96 1020.6
20260831112541 15 222 0.0 0.0 0.00 0.00 0.00 96 1020.6
20260831112040 15 222 0.0 0.0 0.00 0.00 0.00 96 1020.6
20260831111540 15 221 0.0 0.0 0.00 0.00 0.00 96 1020.5
20260831111039 15 221 0.0 0.0 0.00 0.00 0.00 96 1020.3
20260831110538 15 222 0.0 0.0 0.00 0.00 0.00 96 1020.4
20260831110040 15 222 0.0 0.0 0.00 0.00 0.00 96 1020.3
20260831105541 15 221 0.0 0.0 0.00 0.00 0.00 96 1020.2
20260831105109 15 221 0.0 0.0 0.00 0.00 0.00 96 1020.3
20260831104540 15 222 0.0 0.0 0.00 0.00 0.00 96 1020.1
20260831104036 15 221 0.0 0.0 0.00 0.00 0.00 96 1020.0
20260831103536 15 221 0.0 0.0 0.00 0.00 0.00 96 1020.0
20260831103039 15 221 0.0 0.0 0.00 0.00 0.00 96 1019.9
20260831102535 15 221 0.0 0.0 0.00 0.00 0.00 96 1019.9
20260831102036 15 222 0.0 0.0 0.00 0.00 0.00 96 1019.9
20260831101535 15 221 0.0 0.0 0.00 0.00 0.00 96 1019.9
20260831101034 15 222 0.0 0.0 0.00 0.00 0.00 96 1019.8
20260831100534 15 221 0.0 0.0 0.00 0.00 0.00 96 1019.7
20260831100033 15 222 0.0 0.0 0.00 0.00 0.00 96 1019.8
20260831095532 15 221 0.0 0.0 0.00 0.00 0.00 96 1019.6
20260831095032 15 221 0.0 0.0 0.00 0.00 0.00 96 1019.6
20260831094532 15 221 0.0 0.0 0.00 0.00 0.00 96 1019.6
20260831094031 15 222 0.0 0.0 0.00 0.00 0.00 96 1019.5
20260831093531 16 222 0.0 0.0 0.00 0.00 0.00 96 1019.5
20260831093030 15 222 0.0 0.0 0.00 0.00 0.00 96 1019.5
20260831092533 16 221 0.0 0.0 0.00 0.00 0.00 96 1019.5
20260831092030 16 221 0.0 0.0 0.00 0.00 0.00 96 1019.6
20260831091530 16 222 0.0 0.0 0.00 0.00 0.00 96 1019.5
20260831091030 16 222 0.0 0.0 0.00 0.00 0.00 96 1019.5
20260831090529 16 222 0.0 0.0 0.00 0.00 0.00 96 1019.5
20260831090033 16 222 0.0 0.0 0.00 0.00 0.00 96 1019.5
20260831085528 16 221 0.0 0.0 0.00 0.00 0.00 96 1019.5
20260831085027 16 221 0.0 0.0 0.00 0.00 0.00 96 1019.5
20260831084527 16 222 0.0 0.0 0.00 0.00 0.00 96 1019.4
20260831084027 16 222 0.0 0.0 0.00 0.00 0.00 96 1019.5
20260831083526 16 221 0.0 0.0 0.00 0.00 0.00 96 1019.5
20260831083036 16 222 0.0 0.0 0.00 0.00 0.00 96 1019.5
20260831082525 16 222 0.0 0.0 0.00 0.00 0.00 96 1019.6
20260831082029 16 222 0.0 0.0 0.00 0.00 0.00 96 1019.5
20260831081525 16 222 0.0 0.0 0.00 0.00 0.00 96 1019.5
20260831081026 16 222 0.0 0.0 0.00 0.00 0.00 96 1019.5
20260831080523 16 221 0.0 0.0 0.00 0.00 0.00 96 1019.6
20260831080022 16 222 0.0 0.0 0.00 0.00 0.00 96 1019.6
20260831075522 16 221 0.0 0.0 0.00 0.00 0.00 96 1019.6
20260831075021 16 221 0.0 0.0 0.00 0.00 0.00 96 1019.6
20260831074521 16 222 0.0 0.0 0.00 0.00 0.00 96 1019.6
20260831074021 16 221 0.0 0.0 0.00 0.00 0.00 96 1019.7
20260831073521 16 221 0.0 0.0 0.00 0.00 0.00 96 1019.7
20260831073019 17 221 0.0 0.0 0.00 0.00 0.00 96 1019.7
20260831072519 17 221 0.0 0.0 0.00 0.00 0.00 96 1019.6
20260831072019 17 222 0.0 0.0 0.00 0.00 0.00 96 1019.8
20260831071519 17 221 0.0 0.0 0.00 0.00 0.00 96 1019.7
20260831071019 17 222 0.0 0.0 0.00 0.00 0.00 96 1019.7
20260831070519 17 222 0.0 0.0 0.00 0.00 0.00 96 1019.7
20260831070025 17 221 0.0 0.0 0.00 0.00 0.00 96 1019.7
20260831065620 17 221 0.0 0.0 0.00 0.00 0.00 96 1019.7
20260831065016 17 222 0.0 0.0 0.00 0.00 0.00 96 1019.8
20260831064518 17 221 0.0 0.0 0.00 0.00 0.00 96 1019.8
20260831064017 17 221 0.0 0.0 0.00 0.00 0.00 96 1019.8
20260831063516 17 221 0.0 0.0 0.00 0.00 0.00 96 1019.8
20260831063016 17 221 0.0 0.0 0.00 0.00 0.00 96 1019.8
20260831062515 17 221 0.0 0.0 0.00 0.00 0.00 96 1020.0
20260831062015 17 221 0.0 0.0 0.00 0.00 0.00 96 1019.9
20260831061515 17 222 0.0 0.0 0.00 0.00 0.00 96 1019.9
20260831061013 17 222 0.0 0.0 0.00 0.00 0.00 96 1019.9
20260831060512 17 222 0.0 0.0 0.00 0.00 0.00 96 1019.8
20260831060012 17 222 0.0 0.0 0.00 0.00 0.00 96 1020.0
20260831055511 17 222 0.0 0.0 0.00 0.00 0.00 96 1020.1
20260831055011 17 221 0.0 0.0 0.00 0.00 0.00 96 1020.1
20260831054511 17 221 0.0 0.0 0.00 0.00 0.00 96 1020.2
20260831054012 17 222 0.0 0.0 0.00 0.00 0.00 96 1020.2
20260831053509 17 221 0.0 0.0 0.00 0.00 0.00 96 1020.3
20260831053010 17 221 0.0 0.0 0.00 0.00 0.00 96 1020.2
20260831052509 17 222 0.0 0.0 0.00 0.00 0.00 96 1020.1
20260831052008 17 221 0.0 0.0 0.00 0.00 0.00 96 1020.2
20260831051509 17 221 0.0 0.0 0.00 0.00 0.00 96 1020.3
20260831051008 17 222 0.0 0.0 0.00 0.00 0.00 96 1020.3
20260831050507 17 221 0.0 0.0 0.00 0.00 0.00 96 1020.1
20260831050006 17 221 0.0 0.0 0.00 0.00 0.00 96 1020.2
20260831045509 17 221 0.0 0.0 0.00 0.00 0.00 96 1020.0
20260831045007 17 222 0.0 0.0 0.00 0.00 0.00 96 1020.1
20260831044506 17 222 0.0 0.0 0.00 0.00 0.00 96 1019.9
20260831044005 17 221 0.0 0.0 0.00 0.00 0.00 96 1020.1
20260831043507 17 222 0.0 0.0 0.00 0.00 0.00 96 1020.0
20260831043005 17 221 0.0 0.0 0.00 0.00 0.00 96 1020.1
20260831042507 17 222 0.0 0.0 0.00 0.00 0.00 95 1020.3
20260831042003 17 222 0.0 0.0 0.00 0.00 0.00 95 1020.2
20260831041502 17 221 0.0 0.0 0.00 0.00 0.00 96 1020.3
20260831041005 17 221 0.0 0.0 0.00 0.00 0.00 96 1020.3